Flag for Switzerland Weather past 2 weeks in Winterthur, Switzerland

Now
79 °F

Scattered clouds.


Feels Like: 79 °F
Forecast: 51 / 75 °F
Wind: 6 mph from Northwest

Location: Zurich-Kloten

Current Time: Jul 25, 2014 at 6:50:12 PM

Latest Report: Jul 25, 2014 at 6:20 PM


Visibility: N/A

Pressure: 29.86 "Hg

Humidity: 42%

Dew point: 54 °F

Location of WinterthurLocation

Historic Weather in Winterthur — Graph

°F

Winterthur temperature yesterday

Maximum temperature yesterday: 79 °F (at 2:50 PM)
Minimum temperature yesterday: 57 °F (at 2:50 AM)
Average temperature yesterday: 67 °F

Past Weeks' High & Low Weather Summary

 TemperatureHumidityPressure
High93 °F (Jul 19, 6:50 PM)100% (Jul 10, 11:50 PM)30.21 "Hg (Jul 10, 11:50 PM)
Low52 °F (Jul 16, 5:50 AM)25% (Jul 18, 4:50 PM)29.83 "Hg (Jul 20, 2:20 AM)
Average67 °F77%30.01 "Hg
* Reported Jul 10 5:20 PM — Jul 25 5:20 PM, Winterthur, Weather by CustomWeather, © 2014

Note: Actual official high and low records may vary slightly from our data, if they occured in-between our weather recording intervals... More about our weather records

Advertising

Winterthur weather history for previous 24 hours

 ConditionsComfort  
Time TempWeatherWind HumidityBarometerVisibility
5:20 PM
Jul 25
81 °FScattered clouds.5 mph37%29.89 "HgN/A
4:50 PM81 °FPassing clouds.2 mph34%29.89 "HgN/A
4:20 PM81 °FPassing clouds.6 mph37%29.89 "HgN/A
3:50 PM81 °FPassing clouds.5 mph42%29.89 "HgN/A
3:20 PM81 °FPassing clouds.5 mph39%29.92 "HgN/A
2:20 PM79 °FPassing clouds.5 mph48%29.92 "HgN/A
1:50 PM79 °FPassing clouds.5 mph51%29.92 "HgN/A
1:20 PM79 °FPassing clouds.5 mph51%29.92 "HgN/A
12:50 PM77 °FPassing clouds.3 mph51%29.95 "HgN/A
12:20 PM75 °FPassing clouds.3 mph57%29.95 "HgN/A
11:50 AM73 °FSunny.5 mph57%29.95 "Hg10 mi
11:20 AM73 °FPassing clouds.5 mph57%29.95 "HgN/A
10:50 AM72 °FPassing clouds.6 mph65%29.95 "HgN/A
10:20 AM70 °FSunny.5 mph69%29.95 "Hg10 mi
9:50 AM68 °FPassing clouds.3 mph73%29.98 "HgN/A
9:20 AM68 °FPassing clouds.3 mph78%29.98 "HgN/A
8:50 AM66 °FPassing clouds.3 mph78%29.95 "HgN/A
8:20 AM63 °FSunny.3 mph88%29.98 "Hg10 mi
7:50 AM61 °FSunny.3 mph94%29.98 "Hg10 mi
7:20 AM59 °FSunny.2 mph94%29.98 "Hg10 mi
6:50 AM57 °FClear.2 mph94%29.98 "Hg10 mi
6:20 AM57 °FFog.2 mph94%29.95 "Hg5 mi
5:50 AM57 °FFog.3 mph94%29.95 "Hg5 mi
5:20 AM55 °FFog.5 mph94%29.95 "Hg5 mi
4:50 AM55 °FFog.1 mph94%29.95 "Hg6 mi
4:20 AM55 °FFog.No wind100%29.95 "Hg6 mi
3:50 AM55 °FFog.No wind100%29.95 "HgN/A
3:20 AM55 °FFog.1 mph94%29.95 "HgN/A
2:50 AM55 °FClear.1 mph100%29.95 "Hg10 mi
1:50 AM57 °FClear.2 mph94%29.95 "Hg10 mi
1:20 AM59 °FClear.1 mph88%29.95 "Hg10 mi
12:50 AM59 °FClear.3 mph88%29.95 "Hg10 mi
12:20 AM59 °FClear.No wind94%29.95 "Hg10 mi
11:50 PM
Jul 24
61 °FClear.2 mph88%29.95 "Hg10 mi
11:20 PM61 °FPassing clouds.3 mph88%29.95 "HgN/A
10:50 PM63 °FClear.1 mph83%29.95 "Hg10 mi
10:20 PM63 °FClear.2 mph83%29.95 "Hg10 mi
9:50 PM64 °FSunny.2 mph78%29.92 "Hg10 mi
9:20 PM66 °FSunny.3 mph73%29.92 "Hg10 mi
8:50 PM68 °FSunny.5 mph73%29.92 "Hg10 mi
8:20 PM72 °FSunny.6 mph61%29.92 "Hg10 mi
7:50 PM72 °FSunny.8 mph61%29.92 "Hg10 mi
7:20 PM72 °FSunny.8 mph61%29.89 "Hg10 mi
6:50 PM72 °FBroken clouds.8 mph65%29.89 "HgN/A
6:20 PM75 °FScattered clouds.8 mph50%29.89 "HgN/A
Weather by CustomWeather, © 2014

See weather overviewHow to use our weather pages